Location: Moscow
(55.7500°N, 37.5830°E)
Time: 11:45:18
(UTC+03:00)

Vanguard 3 - Pass Details

Date: 30 November 2021
Orbit: 508 x 3260 km, 33.3° (Epoch: 19 January)

Event Time Altitude Azimuth Distance (km) Brightness Sun altitude
Rises 08:03:24 0° 249° (WSW) 6,983 11.6 -4.2°
Reaches altitude 10° 08:09:35 10° 239° (WSW) 5,646 11.2 -3.5°
Maximum altitude 08:21:08 25° 194° (SSW) 3,652 10.8 -2.2°
Drops below altitude 10° 08:29:18 10° 145° (SE) 3,880 12.3 -1.3°
Sets 08:32:35 0° 131° (SE) 4,478 14.9 -0.9°
